Flag for Germany Weather past 2 weeks in Burg, Saxony-Anhalt, Germany

Now
65 °F

Overcast.


Feels Like: 65 °F
Forecast: 56 / 74 °F
Wind: 1 mph from Northwest

Location: Magdeburg

Current Time: Jul 31, 2014 at 12:25:09 AM

Latest Report: Jul 31, 2014 at 12:00 AM


Visibility: 25 mi

Pressure: 29.90 "Hg

Humidity: 80%

Dew point: 58 °F

Location of BurgLocation

Historic Weather in Burg — Graph

°F

Burg temperature yesterday

Maximum temperature yesterday: 71 °F (at 1:00 PM)
Minimum temperature yesterday: 66 °F (at 8:00 AM)
Average temperature yesterday: 68 °F

Past Weeks' High & Low Weather Summary

 TemperatureHumidityPressure
High93 °F (Jul 20, 3:00 PM)98% (Jul 26, 6:00 AM)30.20 "Hg (Jul 26, 6:00 AM)
Low58 °F (Jul 17, 6:00 AM)20% (Jul 19, 6:00 PM)29.71 "Hg (Jul 30, 4:00 AM)
Average73 °F68%29.96 "Hg
* Reported Jul 15 10:00 PM — Jul 30 10:00 PM, Burg, Weather by CustomWeather, © 2014

Note: Actual official high and low records may vary slightly from our data, if they occured in-between our weather recording intervals... More about our weather records

Advertising

Burg weather history for previous 24 hours

 ConditionsComfort  
Time TempWeatherWind HumidityBarometerVisibility
10:00 PM
Jul 30
67 °FOvercast.1 mph86%29.87 "Hg13 mi
9:00 PM66 °FOvercast.1 mph93%29.86 "Hg4 mi
8:00 PM66 °FDrizzle. Overcast.3 mph92%29.85 "Hg4 mi
7:00 PM70 °FOvercast.2 mph86%29.83 "Hg7 mi
6:00 PM70 °FOvercast.2 mph83%29.83 "Hg8 mi
5:00 PM69 °FOvercast.3 mph87%29.81 "Hg7 mi
4:00 PM69 °FFog.3 mph89%29.80 "Hg7 mi
3:00 PM70 °FOvercast.3 mph85%29.80 "Hg9 mi
2:00 PM71 °FOvercast.2 mph83%29.78 "Hg14 mi
1:00 PM71 °FLow clouds.2 mph85%29.78 "Hg14 mi
12:00 PM70 °FLow clouds.2 mph90%29.77 "Hg10 mi
11:00 AM68 °FLow clouds.2 mph93%29.76 "Hg6 mi
10:00 AM67 °FLight rain. Low clouds.2 mph95%29.75 "Hg2 mi
9:00 AM67 °FLight rain. Low clouds.2 mph96%29.74 "Hg2 mi
8:00 AM66 °FThundershowers. Low clouds.2 mph97%29.72 "Hg1 mi
7:00 AM66 °FLight rain. Low clouds.1 mph96%29.72 "Hg1 mi
6:00 AM67 °FFog.1 mph96%29.72 "Hg2 mi
4:00 AM67 °FFog.1 mph96%29.71 "Hg2 mi
3:00 AM67 °FFog.1 mph96%29.72 "Hg2 mi
2:00 AM67 °FLow clouds.2 mph96%29.72 "Hg3 mi
1:00 AM67 °FRain. Low clouds.2 mph96%29.74 "Hg1 mi
12:00 AM68 °FRain. Dense fog.3 mph95%29.74 "Hg1 mi
Weather by CustomWeather, © 2014

See weather overviewHow to use our weather pages